VORF Weather Reports


time (UTC)temp
F
wind
direction
speed
knots
gust
knots
rain 1hr
in
rain 24hr
in
rain mn
in
humidity
%
barometer
mb
20260906113057 70 80 0.0 2.6 0.00 0.00 0.00 89 1017.6
20260906111549 70 41 0.0 4.3 0.00 0.00 0.00 88 1017.4
20260906110054 70 0 0.0 3.5 0.00 0.00 0.00 88 1017.4
20260906104551 71 37 0.9 2.6 0.00 0.00 0.00 87 1017.1
20260906103047 71 58 0.9 3.5 0.00 0.00 0.00 87 1016.9
20260906101554 71 0 0.0 3.5 0.00 0.00 0.00 86 1016.9
20260906100052 72 53 0.0 1.7 0.00 0.00 0.00 86 1016.8
20260906094550 72 51 0.9 2.6 0.00 0.00 0.00 86 1016.7
20260906093056 72 45 0.0 3.5 0.00 0.00 0.00 85 1016.7
20260906091554 72 77 0.9 3.5 0.00 0.00 0.00 84 1016.7
20260906090103 72 43 0.9 3.5 0.00 0.00 0.00 84 1016.7
20260906084550 72 57 0.9 3.5 0.00 0.00 0.00 85 1016.6
20260906083055 72 51 0.9 2.6 0.00 0.00 0.00 86 1016.5
20260906081558 72 49 0.9 3.5 0.00 0.00 0.00 86 1016.7
20260906080053 72 76 0.9 2.6 0.00 0.00 0.00 86 1016.7
20260906074608 73 67 0.9 3.5 0.00 0.00 0.00 86 1016.7
20260906073047 73 53 0.9 4.3 0.00 0.00 0.00 85 1016.7
20260906071558 73 43 1.7 6.1 0.00 0.00 0.00 85 1016.9
20260906070051 73 86 0.0 2.6 0.00 0.00 0.00 86 1016.8
20260906064555 72 26 0.0 2.6 0.00 0.00 0.00 87 1016.9
20260906063055 73 44 0.9 2.6 0.00 0.00 0.00 88 1016.7
20260906061611 72 0 0.0 4.3 0.00 0.00 0.00 88 1016.7
20260906060051 73 15 0.0 2.6 0.00 0.00 0.00 88 1016.8
20260906054558 73 0 0.0 3.5 0.00 0.00 0.00 88 1016.8
20260906053050 73 63 0.0 5.2 0.00 0.00 0.00 88 1016.8
20260906051603 73 44 3.5 9.6 0.00 0.00 0.00 88 1016.5
20260906050056 73 34 2.6 7.0 0.00 0.00 0.00 88 1016.5
20260906044552 73 49 1.7 8.7 0.00 0.00 0.00 88 1016.4
20260906043048 72 55 2.6 8.7 0.00 0.00 0.00 87 1016.1
20260906041553 72 78 3.5 8.7 0.00 0.00 0.00 87 1016.0
20260906040058 73 98 1.7 7.0 0.00 0.00 0.00 87 1015.9
20260906034551 72 28 1.7 8.7 0.00 0.00 0.00 87 1015.8
20260906033052 73 31 2.6 8.7 0.00 0.00 0.00 87 1015.8
20260906031601 73 57 1.7 8.7 0.00 0.00 0.00 87 1015.9
20260906030056 73 42 2.6 10.4 0.00 0.00 0.00 86 1015.8
20260906024550 73 40 5.2 12.2 0.00 0.00 0.00 86 1015.8
20260906023053 73 46 1.7 10.4 0.00 0.00 0.00 85 1015.5
20260906021553 73 16 3.5 12.2 0.00 0.00 0.00 85 1015.7
20260906020057 73 98 1.7 11.3 0.00 0.00 0.00 85 1015.9
20260906014555 73 342 1.7 8.7 0.00 0.00 0.00 85 1016.0
20260906013053 73 296 3.5 10.4 0.00 0.00 0.00 86 1015.8
20260906011553 73 78 3.5 10.4 0.00 0.00 0.00 86 1015.7
20260906010050 73 9 3.5 11.3 0.00 0.00 0.00 86 1015.5
20260906004557 72 348 3.5 8.7 0.00 0.00 0.00 86 1015.2
20260906003057 72 76 1.7 12.2 0.00 0.00 0.00 86 1015.1
20260906001554 73 56 0.9 7.8 0.00 0.00 0.00 85 1015.2
20260905234558 73 63 2.6 10.4 0.00 0.00 0.00 86 1015.2
20260905233105 73 292 4.3 10.4 0.00 0.00 0.00 85 1015.0
20260905231554 74 17 3.5 11.3 0.00 0.00 0.00 85 1015.0
20260905230054 75 35 5.2 10.4 0.00 0.00 0.00 84 1014.8
20260905224605 76 53 3.5 11.3 0.00 0.00 0.00 82 1014.7
20260905223054 77 314 2.6 10.4 0.00 0.00 0.00 81 1014.8
20260905221602 78 317 2.6 7.0 0.00 0.00 0.00 79 1014.7
20260905220108 79 153 5.2 9.6 0.00 0.00 0.00 78 1014.5
20260905214556 80 319 1.7 11.3 0.00 0.00 0.00 77 1014.4
20260905213053 79 310 3.5 7.8 0.00 0.00 0.00 77 1014.2
20260905211629 80 336 2.6 9.6 0.00 0.00 0.00 76 1014.2
20260905210056 80 65 2.6 10.4 0.00 0.00 0.00 75 1014.3
20260905204556 80 33 3.5 7.8 0.00 0.00 0.00 75 1014.3
20260905203114 79 325 1.7 6.1 0.00 0.00 0.00 77 1014.3
20260905201559 79 332 4.3 9.6 0.00 0.00 0.00 77 1014.3
20260905200100 79 348 3.5 11.3 0.00 0.00 0.00 76 1014.5
20260905194548 80 76 2.6 7.8 0.00 0.00 0.00 76 1014.3
20260905193055 80 300 2.6 7.8 0.00 0.00 0.00 77 1014.5
20260905191551 79 330 3.5 7.8 0.00 0.00 0.00 78 1014.7
20260905190054 79 230 2.6 12.2 0.00 0.00 0.00 79 1014.6
20260905184555 80 325 1.7 7.8 0.00 0.00 0.00 77 1014.6
20260905183050 80 13 1.7 7.0 0.00 0.00 0.00 78 1014.7
20260905181609 80 318 4.3 9.6 0.00 0.00 0.00 77 1014.7
20260905180108 82 311 1.7 7.0 0.00 0.00 0.00 75 1014.5
20260905174557 81 9 4.3 9.6 0.00 0.00 0.00 76 1014.6
20260905173057 80 343 2.6 10.4 0.00 0.00 0.00 77 1014.6
20260905171554 81 346 5.2 10.4 0.00 0.00 0.00 76 1014.6
20260905170053 80 331 4.3 10.4 0.00 0.00 0.00 77 1014.6
20260905164557 82 84 1.7 9.6 0.00 0.00 0.00 76 1014.7
20260905163054 81 32 3.5 8.7 0.00 0.00 0.00 76 1014.7
20260905161550 82 315 2.6 7.0 0.00 0.00 0.00 76 1014.6
20260905160133 82 13 1.7 6.1 0.00 0.00 0.00 76 1014.6
20260905154553 81 61 1.7 8.7 0.00 0.00 0.00 77 1014.4
20260905153052 81 82 1.7 9.6 0.00 0.00 0.00 76 1014.3
20260905151608 81 72 2.6 7.8 0.00 0.00 0.00 76 1014.1
20260905150058 81 299 0.9 5.2 0.00 0.00 0.00 77 1014.1
20260905144553 79 296 3.5 9.6 0.00 0.00 0.00 80 1014.1
20260905143052 80 36 2.6 10.4 0.00 0.00 0.00 81 1014.0
20260905141550 80 49 2.6 11.3 0.00 0.00 0.00 81 1013.9
20260905140058 79 53 1.7 6.1 0.00 0.00 0.00 82 1013.8
20260905134556 78 37 1.7 8.7 0.00 0.00 0.00 86 1013.8
20260905133102 77 310 3.5 9.6 0.00 0.00 0.00 87 1014.0
20260905131605 75 288 0.0 6.1 0.00 0.00 0.00 92 1013.9
20260905130056 74 304 1.7 3.5 0.00 0.00 0.00 94 1013.7
20260905124554 73 308 1.7 5.2 0.00 0.00 0.00 94 1013.5
20260905123103 73 327 0.9 2.6 0.00 0.00 0.00 94 1013.3
20260905121555 73 311 0.9 4.3 0.00 0.00 0.00 93 1013.2
20260905120113 73 20 0.9 3.5 0.00 0.00 0.00 93 1013.2
20260905114558 74 349 0.9 3.5 0.00 0.00 0.00 93 1012.7